STARLINK-5803 (56008 NORAD) Tracking and Keplerian Element Data

This shows tracking and keplerian element data for the satellite.

Feedback or suggestion? Click here.




ElementValue
Catalog56008
NameSTARLINK-5803
Epoch Orbit712
Epoch Day127.00001157
Epoch Year2023
RAAN297.4752
Inclination43.0006
Eccentricity0.0001547
Argument of Perigee274.8006
Mean Anonmoly4.8938
Mean Motion15.3855643
Decay Rate-0.00922807
L11 56008U 23042Y 23127.00001157 -.00922807 00000+0 -25855-1 0 9994
L22 56008 43.0006 297.4752 0001547 274.8006 4.8938 15.38556430 7126



Live tracking and technical data element details for STARLINK-5803 (NORAD 56008). STARLINK-5803 can be tracked NOW for your location showing map with azimuth and elevation plus other details from your city location.







IsCatalogInMostPopularTable: catalog: 56008, numindb: 1
Update: records affected: 1



GetName: 56008 STARLINK-5803

Hit Count: updated at: Mon, 05 Jun 2023 00:34:59 GMT